FW8996 Weather Reports


time (UTC)temp
C
wind
direction
speed
KPH
gust
KPH
rain 1hr
cm
rain 24hr
cm
rain mn
cm
humidity
%
barometer
mb
20260505183723 25 90 0.0 0.0 0.00 0.00 0.00 83 1010.7
20260505183218 25 158 0.0 0.0 0.00 0.00 0.00 83 1010.6
20260505182705 25 135 0.0 0.0 0.00 0.00 0.00 82 1010.6
20260505182152 25 135 0.0 0.0 0.00 0.00 0.00 83 1010.7
20260505181642 25 45 0.0 0.0 0.00 0.00 0.00 83 1010.9
20260505181137 25 113 0.0 0.0 0.00 0.00 0.00 83 1010.7
20260505180622 25 68 0.0 0.0 0.00 0.00 0.00 83 1010.8
20260505180113 25 113 0.0 0.0 0.00 0.00 0.00 83 1010.6
20260505175605 24 90 0.0 0.0 0.00 0.00 0.00 84 1010.9
20260505175051 24 45 0.0 0.0 0.00 0.00 0.00 85 1010.8
20260505174542 24 45 0.0 0.0 0.00 0.00 0.00 85 1010.9
20260505173015 24 68 0.0 3.2 0.00 0.00 0.00 85 1010.7
20260505172507 24 90 0.0 3.2 0.00 0.00 0.00 85 1011.2
20260505171956 24 45 0.0 3.2 0.00 0.00 0.00 85 1011.2
20260505171446 23 45 0.0 3.2 0.00 0.00 0.00 84 1011.2
20260505170933 24 68 0.0 0.0 0.00 0.00 0.00 84 1010.9
20260505170423 23 90 0.0 0.0 0.00 0.00 0.00 85 1011.2
20260505165911 23 68 0.0 0.0 0.00 0.00 0.00 85 1011.4
20260505165400 23 23 0.0 0.0 0.00 0.00 0.00 85 1011.3
20260505164851 23 68 0.0 3.2 0.00 0.00 0.00 85 1011.3
20260505163830 23 90 0.0 3.2 0.00 0.00 0.00 85 1011.5
20260505162810 23 23 0.0 0.0 0.00 0.00 0.00 84 1011.5
20260505162306 23 68 0.0 3.2 0.00 0.00 0.00 86 1011.7
20260505161752 23 45 0.0 3.2 0.00 0.00 0.00 86 1011.7
20260505161242 23 68 0.0 3.2 0.00 0.00 0.00 86 1011.9
20260505160735 23 68 0.0 3.2 0.00 0.00 0.00 86 1011.9
20260505160221 23 45 0.0 3.2 0.00 0.00 0.00 86 1012.1
20260505152613 22 45 0.0 6.4 0.00 0.00 0.00 87 1012.1
20260505152105 22 315 0.0 6.4 0.00 0.00 0.00 87 1012.1
20260505151549 22 45 0.0 6.4 0.00 0.00 0.00 87 1012.0
20260505151044 22 45 0.0 6.4 0.00 0.00 0.00 87 1012.0
20260505150531 22 45 0.0 12.9 0.00 0.00 0.00 87 1012.3
20260505124047 20 23 0.0 0.0 0.00 0.00 0.00 92 1012.9
20260505123533 19 45 0.0 0.0 0.00 0.00 0.00 92 1012.8
20260505123028 19 68 0.0 0.0 0.00 0.00 0.00 93 1012.8
20260505122516 19 68 0.0 0.0 0.00 0.00 0.00 93 1012.5
20260505121501 18 68 0.0 0.0 0.00 0.00 0.00 93 1012.7
20260505113806 18 68 0.0 0.0 0.00 0.00 0.00 93 1012.4
20260505113252 18 45 0.0 0.0 0.00 0.00 0.00 93 1012.1
20260505112748 18 68 0.0 0.0 0.00 0.00 0.00 93 1012.2
20260505112232 17 90 0.0 0.0 0.00 0.00 0.00 93 1012.2
20260505111727 18 68 0.0 0.0 0.00 0.00 0.00 93 1012.1
20260505111217 18 45 0.0 0.0 0.00 0.00 0.00 93 1011.9
20260505110707 18 113 0.0 0.0 0.00 0.00 0.00 93 1011.7
20260505102031 18 68 0.0 0.0 0.00 0.00 0.00 93 1011.7
20260505101533 17 113 0.0 0.0 0.00 0.00 0.00 93 1011.4
20260505100506 17 90 0.0 0.0 0.00 0.00 0.00 93 1011.3
20260505095953 17 68 0.0 0.0 0.00 0.00 0.00 93 1011.3
20260505095446 17 68 0.0 0.0 0.00 0.00 0.00 93 1011.3
20260505094930 17 45 0.0 0.0 0.00 0.00 0.00 93 1011.3
20260505093910 17 68 0.0 0.0 0.00 0.00 0.00 93 1011.1
20260505093405 17 45 0.0 0.0 0.00 0.00 0.00 92 1011.1
20260505092850 17 45 0.0 0.0 0.00 0.00 0.00 92 1010.9
20260505092342 17 68 0.0 0.0 0.00 0.00 0.00 92 1010.7
20260505091834 17 45 0.0 0.0 0.00 0.00 0.00 92 1010.9
20260505091319 17 68 0.0 0.0 0.00 0.00 0.00 92 1011.1
20260505090814 17 45 0.0 0.0 0.00 0.00 0.00 92 1011.2
20260505090302 17 45 0.0 0.0 0.00 0.00 0.00 92 1011.0
20260505085750 17 45 0.0 0.0 0.00 0.00 0.00 92 1010.8
20260505084733 17 68 0.0 0.0 0.00 0.00 0.00 92 1011.0
20260505084221 17 45 0.0 0.0 0.00 0.00 0.00 92 1010.8
20260505083714 17 23 0.0 0.0 0.00 0.00 0.00 92 1010.7
20260505083204 17 45 0.0 0.0 0.00 0.00 0.00 92 1010.8
20260505082653 17 23 0.0 0.0 0.00 0.00 0.00 92 1010.7
20260505082140 17 45 0.0 0.0 0.00 0.00 0.00 92 1010.8
20260505081633 17 23 0.0 0.0 0.00 0.00 0.00 92 1010.6
20260505080103 17 68 0.0 0.0 0.00 0.00 0.00 92 1010.9
20260505075550 17 23 0.0 0.0 0.00 0.00 0.00 92 1010.8
20260505075038 17 45 0.0 0.0 0.00 0.00 0.00 92 1011.0
20260505074532 17 68 0.0 0.0 0.00 0.00 0.00 92 1010.8
20260505074020 17 68 0.0 0.0 0.00 0.00 0.00 92 1010.7
20260505073510 17 68 0.0 0.0 0.00 0.00 0.00 91 1010.6
20260505073000 17 68 0.0 0.0 0.00 0.00 0.00 91 1010.6
20260505072451 17 68 0.0 0.0 0.00 0.00 0.00 91 1010.6
20260505071943 17 45 0.0 0.0 0.00 0.00 0.00 91 1010.7
20260505071432 17 68 0.0 0.0 0.00 0.00 0.00 91 1010.8
20260505070923 17 45 0.0 0.0 0.00 0.00 0.00 91 1010.8
20260505065859 17 45 0.0 0.0 0.00 0.00 0.00 91 1010.9
20260505065351 17 45 0.0 0.0 0.00 0.00 0.00 91 1010.9
20260505064838 17 23 0.0 0.0 0.00 0.00 0.00 91 1011.0
20260505064338 17 23 0.0 0.0 0.00 0.00 0.00 91 1010.9
20260505063818 17 0 0.0 0.0 0.00 0.00 0.00 90 1011.2
20260505063306 17 23 0.0 0.0 0.00 0.00 0.00 90 1011.0
20260505062900 17 23 0.0 0.0 0.00 0.00 0.00 90 1011.1
20260505061330 17 135 0.0 0.0 0.00 0.00 0.00 90 1010.8
20260505060817 17 68 0.0 0.0 0.00 0.00 0.00 90 1010.9
20260505060310 17 45 0.0 0.0 0.00 0.00 0.00 90 1010.9
20260505055800 17 135 0.0 0.0 0.00 0.00 0.00 89 1010.9
20260505054739 17 68 0.0 0.0 0.00 0.00 0.00 89 1011.0
20260505054230 17 23 0.0 0.0 0.00 0.00 0.00 88 1011.1
20260505053717 17 23 0.0 0.0 0.00 0.00 0.00 88 1011.1
20260505053213 17 23 0.0 0.0 0.00 0.00 0.00 89 1011.0
20260505052700 17 23 0.0 0.0 0.00 0.00 0.00 89 1011.1
20260505052150 17 45 0.0 0.0 0.00 0.00 0.00 89 1011.0
20260505051639 17 45 0.0 0.0 0.00 0.00 0.00 88 1011.1
20260505051130 17 68 0.0 0.0 0.00 0.00 0.00 88 1011.0
20260505041438 17 45 0.0 0.0 0.00 0.00 0.00 84 1011.6
20260505040928 16 68 0.0 0.0 0.00 0.00 0.00 83 1011.5
20260505040417 16 68 0.0 0.0 0.00 0.00 0.00 84 1011.4
20260505035908 16 90 0.0 0.0 0.00 0.00 0.00 85 1011.5
20260505035357 15 225 0.0 0.0 0.00 0.00 0.00 86 1011.3
20260505033826 15 248 0.0 0.0 0.00 0.00 0.00 85 1011.2
20260505033317 15 135 0.0 0.0 0.00 0.00 0.00 85 1011.0
20260505032804 15 135 0.0 0.0 0.00 0.00 0.00 85 1011.1
20260505032256 15 113 0.0 0.0 0.00 0.00 0.00 85 1011.3
20260505031746 15 135 0.0 0.0 0.00 0.00 0.00 85 1011.0
20260505031236 15 90 0.0 0.0 0.00 0.00 0.00 85 1011.2
20260505030724 15 90 0.0 0.0 0.00 0.00 0.00 85 1011.1
20260505030216 15 90 0.0 0.0 0.00 0.00 0.00 86 1011.3
20260505025707 15 135 0.0 0.0 0.00 0.00 0.00 86 1011.3
20260505025156 15 135 0.0 0.0 0.00 0.00 0.00 86 1011.0
20260505024646 14 158 0.0 0.0 0.00 0.00 0.00 85 1011.1
20260505024136 15 135 0.0 0.0 0.00 0.00 0.00 85 1011.1
20260505023625 14 135 0.0 0.0 0.00 0.00 0.00 85 1010.8
20260505022606 14 135 0.0 0.0 0.00 0.00 0.00 85 1010.9
20260505022057 14 158 0.0 0.0 0.00 0.00 0.00 85 1010.8
20260505021545 14 135 0.0 0.0 0.00 0.00 0.00 84 1010.8
20260505021032 14 158 0.0 0.0 0.00 0.00 0.00 84 1010.7
20260505020525 15 135 0.0 0.0 0.00 0.00 0.00 84 1010.6
20260505020018 14 113 0.0 0.0 0.00 0.00 0.00 84 1010.8
20260505014958 15 113 0.0 0.0 0.00 0.00 0.00 81 1010.7
20260505014442 15 90 0.0 0.0 0.00 0.00 0.00 81 1010.7
20260505013424 15 90 0.0 0.0 0.00 0.00 0.00 81 1010.8
20260505012914 15 68 0.0 0.0 0.00 0.00 0.00 81 1010.6
20260505012404 15 68 0.0 0.0 0.00 0.00 0.00 81 1010.7
20260505011344 15 90 0.0 0.0 0.00 0.00 0.00 81 1010.4
20260505010837 15 68 0.0 0.0 0.00 0.00 0.00 80 1010.6
20260505010326 15 90 0.0 0.0 0.00 0.00 0.00 80 1010.6
20260505005815 15 90 0.0 0.0 0.00 0.00 0.00 80 1010.4
20260505005305 15 135 0.0 0.0 0.00 0.00 0.00 80 1010.7
20260505004753 15 113 0.0 0.0 0.00 0.00 0.00 80 1010.5
20260505003733 15 90 0.0 0.0 0.00 0.00 0.00 80 1010.3
20260505003222 15 90 0.0 0.0 0.00 0.00 0.00 80 1010.4
20260505002714 15 90 0.0 0.0 0.00 0.00 0.00 81 1010.4
20260505002200 15 113 0.0 0.0 0.00 0.00 0.00 80 1010.5
20260505001143 15 90 0.0 0.0 0.00 0.00 0.00 79 1010.3
20260505000632 15 68 0.0 0.0 0.00 0.00 0.00 79 1010.5
20260505000120 15 90 0.0 0.0 0.00 0.00 0.00 77 1010.3
20260504235613 15 90 0.0 0.0 0.00 0.00 0.00 77 1010.4
20260504235102 15 68 0.0 0.0 0.00 0.00 0.00 77 1010.4
20260504234553 15 113 0.0 0.0 0.00 0.00 0.00 77 1010.0
20260504234037 15 135 0.0 0.0 0.00 0.00 0.00 79 1010.1
20260504233532 15 135 0.0 0.0 0.00 0.00 0.00 78 1009.9
20260504233022 15 113 0.0 0.0 0.00 0.00 0.00 76 1009.9
20260504232002 16 90 0.0 0.0 0.00 0.00 0.00 74 1010.0
20260504231449 16 113 0.0 0.0 0.00 0.00 0.00 73 1009.8
20260504230941 16 90 0.0 0.0 0.00 0.00 0.00 72 1010.0
20260504230428 17 90 0.0 0.0 0.00 0.00 0.00 72 1009.8
20260504225916 17 113 0.0 0.0 0.00 0.00 0.00 71 1009.7
20260504225411 17 68 0.0 0.0 0.00 0.00 0.00 71 1009.5
20260504224901 17 90 0.0 0.0 0.00 0.00 0.00 71 1009.6
20260504224348 17 90 0.0 0.0 0.00 0.00 0.00 71 1009.6
20260504223835 17 68 0.0 0.0 0.00 0.00 0.00 71 1009.6
20260504223330 17 68 0.0 0.0 0.00 0.00 0.00 72 1009.5
20260504222824 17 68 0.0 0.0 0.00 0.00 0.00 71 1009.3
20260504222311 17 68 0.0 0.0 0.00 0.00 0.00 70 1009.3
20260504221800 17 68 0.0 0.0 0.00 0.00 0.00 70 1009.1
20260504221249 17 68 0.0 0.0 0.00 0.00 0.00 70 1009.2
20260504220740 17 68 0.0 0.0 0.00 0.00 0.00 69 1009.2
20260504220231 17 90 0.0 0.0 0.00 0.00 0.00 69 1009.3
20260504215720 17 68 0.0 0.0 0.00 0.00 0.00 68 1009.0
20260504215208 17 68 0.0 0.0 0.00 0.00 0.00 68 1009.1
20260504214147 18 90 0.0 0.0 0.00 0.00 0.00 66 1008.8
20260504213637 18 68 0.0 0.0 0.00 0.00 0.00 66 1008.8
20260504213129 18 68 0.0 0.0 0.00 0.00 0.00 65 1008.9
20260504212616 18 68 0.0 0.0 0.00 0.00 0.00 66 1008.8
20260504212109 18 68 0.0 0.0 0.00 0.00 0.00 65 1009.1
20260504211555 18 68 0.0 0.0 0.00 0.00 0.00 65 1009.0
20260504211048 19 68 0.0 0.0 0.00 0.00 0.00 63 1009.0
20260504210538 20 68 0.0 0.0 0.00 0.00 0.00 62 1009.2
20260504210028 20 45 0.0 0.0 0.00 0.00 0.00 62 1009.1
20260504204458 21 68 0.0 0.0 0.00 0.00 0.00 58 1009.3
20260504203943 21 68 0.0 0.0 0.00 0.00 0.00 56 1009.3
20260504203438 21 68 0.0 0.0 0.00 0.00 0.00 54 1009.3
20260504202928 22 68 0.0 0.0 0.00 0.00 0.00 53 1009.2
20260504201907 22 23 0.0 3.2 0.00 0.00 0.00 52 1009.1
20260504201357 22 45 0.0 6.4 0.00 0.00 0.00 52 1009.1
20260504200850 22 45 0.0 6.4 0.00 0.00 0.00 51 1009.1
20260504200336 22 68 0.0 11.3 0.00 0.00 0.00 51 1009.2
20260504195317 22 45 0.0 6.4 0.00 0.00 0.00 51 1009.1
20260504194806 22 315 0.0 9.7 0.00 0.00 0.00 50 1009.3
20260504194257 22 68 3.2 9.7 0.00 0.00 0.00 50 1009.1
20260504193744 22 68 1.6 6.4 0.00 0.00 0.00 50 1009.5
20260504193233 22 135 0.0 9.7 0.00 0.00 0.00 51 1009.2
20260504192216 22 68 3.2 9.7 0.00 0.00 0.00 52 1009.3
20260504191708 22 23 1.6 9.7 0.00 0.00 0.00 52 1009.3
20260504191153 23 68 0.0 3.2 0.00 0.00 0.00 52 1009.5
20260504190136 23 23 0.0 3.2 0.00 0.00 0.00 50 1009.5
20260504185627 23 23 0.0 3.2 0.00 0.00 0.00 49 1009.5
20260504185115 23 23 0.0 6.4 0.00 0.00 0.00 49 1009.6